owner,sensor,date,latitude,longitude,relative_humidity,qcFlag 
DISL,ioos:station:DISL:CATA:1,2018-09-01T00:47:00Z,30.3085,-88.1395,73.7,1111122 
DISL,ioos:station:DISL:CATA:1,2018-09-01T01:47:00Z,30.3085,-88.1395,77.95,1111122 
DISL,ioos:station:DISL:CATA:1,2018-09-01T02:47:00Z,30.3085,-88.1395,83.6,1111122 
DISL,ioos:station:DISL:CATA:1,2018-09-01T03:47:00Z,30.3085,-88.1395,85.5,1111122 
DISL,ioos:station:DISL:CATA:1,2018-09-01T04:47:00Z,30.3085,-88.1395,88.8,1111122 
DISL,ioos:station:DISL:CATA:1,2018-09-01T05:47:00Z,30.3085,-88.1395,89.1,1111122 
DISL,ioos:station:DISL:CATA:1,2018-09-01T06:47:00Z,30.3085,-88.1395,89.4,1111122 
DISL,ioos:station:DISL:CATA:1,2018-09-01T07:47:00Z,30.3085,-88.1395,89.8,1111122 
DISL,ioos:station:DISL:CATA:1,2018-09-01T08:47:00Z,30.3085,-88.1395,86.5,1111122 
DISL,ioos:station:DISL:CATA:1,2018-09-01T09:47:00Z,30.3085,-88.1395,86.6,1111122 
DISL,ioos:station:DISL:CATA:1,2018-09-01T10:47:00Z,30.3085,-88.1395,76.45,1111122 
DISL,ioos:station:DISL:CATA:1,2018-09-01T11:47:00Z,30.3085,-88.1395,76.85,1111122 
DISL,ioos:station:DISL:CATA:1,2018-09-01T12:47:00Z,30.3085,-88.1395,70.69,1111122 
DISL,ioos:station:DISL:CATA:1,2018-09-01T13:47:00Z,30.3085,-88.1395,75.23,1111122 
DISL,ioos:station:DISL:CATA:1,2018-09-01T14:47:00Z,30.3085,-88.1395,77.9,1111122 
DISL,ioos:station:DISL:CATA:1,2018-09-01T15:47:00Z,30.3085,-88.1395,68.31,1111122 
DISL,ioos:station:DISL:CATA:1,2018-09-01T16:47:00Z,30.3085,-88.1395,69.13,1111122 
DISL,ioos:station:DISL:CATA:1,2018-09-01T17:47:00Z,30.3085,-88.1395,85.8,1111122 
DISL,ioos:station:DISL:CATA:1,2018-09-01T18:47:00Z,30.3085,-88.1395,87.0,1111122 
DISL,ioos:station:DISL:CATA:1,2018-09-01T19:47:00Z,30.3085,-88.1395,87.3,1111122 
DISL,ioos:station:DISL:CATA:1,2018-09-01T20:47:00Z,30.3085,-88.1395,82.1,1111122 
DISL,ioos:station:DISL:CATA:1,2018-09-01T21:47:00Z,30.3085,-88.1395,75.03,1111122 
DISL,ioos:station:DISL:CATA:1,2018-09-01T22:47:00Z,30.3085,-88.1395,84.5,1111122 
DISL,ioos:station:DISL:CATA:1,2018-09-01T23:47:00Z,30.3085,-88.1395,84.9,1111122 
DISL,ioos:station:DISL:CATA:1,2018-09-02T00:47:00Z,30.3085,-88.1395,87.0,1111122 
DISL,ioos:station:DISL:CATA:1,2018-09-02T01:47:00Z,30.3085,-88.1395,82.0,1111122 
DISL,ioos:station:DISL:CATA:1,2018-09-02T02:47:00Z,30.3085,-88.1395,79.46,1111122 
DISL,ioos:station:DISL:CATA:1,2018-09-02T03:47:00Z,30.3085,-88.1395,80.0,1111122 
DISL,ioos:station:DISL:CATA:1,2018-09-02T04:47:00Z,30.3085,-88.1395,78.12,1111122 
DISL,ioos:station:DISL:CATA:1,2018-09-02T05:47:00Z,30.3085,-88.1395,76.37,1111122 
DISL,ioos:station:DISL:CATA:1,2018-09-02T06:47:00Z,30.3085,-88.1395,77.01,1111122 
DISL,ioos:station:DISL:CATA:1,2018-09-02T07:47:00Z,30.3085,-88.1395,78.45,1111122 
DISL,ioos:station:DISL:CATA:1,2018-09-02T08:47:00Z,30.3085,-88.1395,78.04,1111122 
DISL,ioos:station:DISL:CATA:1,2018-09-02T09:47:00Z,30.3085,-88.1395,79.28,1111122 
DISL,ioos:station:DISL:CATA:1,2018-09-02T10:47:00Z,30.3085,-88.1395,79.96,1111122 
DISL,ioos:station:DISL:CATA:1,2018-09-02T11:47:00Z,30.3085,-88.1395,84.8,1111122 
DISL,ioos:station:DISL:CATA:1,2018-09-02T12:47:00Z,30.3085,-88.1395,88.2,1111122 
DISL,ioos:station:DISL:CATA:1,2018-09-02T13:47:00Z,30.3085,-88.1395,87.8,1111122 
DISL,ioos:station:DISL:CATA:1,2018-09-02T14:47:00Z,30.3085,-88.1395,80.4,1111122 
DISL,ioos:station:DISL:CATA:1,2018-09-02T15:47:00Z,30.3085,-88.1395,82.2,1111122 
DISL,ioos:station:DISL:CATA:1,2018-09-02T16:47:00Z,30.3085,-88.1395,81.1,1111122 
DISL,ioos:station:DISL:CATA:1,2018-09-02T17:47:00Z,30.3085,-88.1395,73.58,1111122 
DISL,ioos:station:DISL:CATA:1,2018-09-02T18:47:00Z,30.3085,-88.1395,72.95,1111122 
DISL,ioos:station:DISL:CATA:1,2018-09-02T19:47:00Z,30.3085,-88.1395,74.83,1111122 
DISL,ioos:station:DISL:CATA:1,2018-09-02T20:47:00Z,30.3085,-88.1395,82.3,1111122 
DISL,ioos:station:DISL:CATA:1,2018-09-02T21:47:00Z,30.3085,-88.1395,72.63,1111122 
DISL,ioos:station:DISL:CATA:1,2018-09-02T22:47:00Z,30.3085,-88.1395,78.56,1111122 
DISL,ioos:station:DISL:CATA:1,2018-09-02T23:47:00Z,30.3085,-88.1395,81.6,1111122 
DISL,ioos:station:DISL:CATA:1,2018-09-03T00:47:00Z,30.3085,-88.1395,77.53,1111122 
DISL,ioos:station:DISL:CATA:1,2018-09-03T01:47:00Z,30.3085,-88.1395,78.08,1111122 
DISL,ioos:station:DISL:CATA:1,2018-09-03T02:47:00Z,30.3085,-88.1395,77.7,1111122 
DISL,ioos:station:DISL:CATA:1,2018-09-03T03:47:00Z,30.3085,-88.1395,77.56,1111122 
DISL,ioos:station:DISL:CATA:1,2018-09-03T04:47:00Z,30.3085,-88.1395,84.1,1111122 
DISL,ioos:station:DISL:CATA:1,2018-09-03T05:47:00Z,30.3085,-88.1395,85.1,1111122 
DISL,ioos:station:DISL:CATA:1,2018-09-03T06:47:00Z,30.3085,-88.1395,87.5,1111122 
DISL,ioos:station:DISL:CATA:1,2018-09-03T07:47:00Z,30.3085,-88.1395,87.1,1111122 
DISL,ioos:station:DISL:CATA:1,2018-09-03T08:47:00Z,30.3085,-88.1395,87.8,1111122 
DISL,ioos:station:DISL:CATA:1,2018-09-03T09:47:00Z,30.3085,-88.1395,89.3,1111122 
DISL,ioos:station:DISL:CATA:1,2018-09-03T10:47:00Z,30.3085,-88.1395,90.1,1111122 
DISL,ioos:station:DISL:CATA:1,2018-09-03T11:47:00Z,30.3085,-88.1395,90.3,1111122 
DISL,ioos:station:DISL:CATA:1,2018-09-03T12:47:00Z,30.3085,-88.1395,90.2,1111122 
DISL,ioos:station:DISL:CATA:1,2018-09-03T13:47:00Z,30.3085,-88.1395,81.8,1111122 
DISL,ioos:station:DISL:CATA:1,2018-09-03T14:47:00Z,30.3085,-88.1395,86.0,1111122 
DISL,ioos:station:DISL:CATA:1,2018-09-03T15:47:00Z,30.3085,-88.1395,84.3,1111122 
DISL,ioos:station:DISL:CATA:1,2018-09-03T16:47:00Z,30.3085,-88.1395,82.0,1111122 
DISL,ioos:station:DISL:CATA:1,2018-09-03T17:47:00Z,30.3085,-88.1395,77.12,1111122 
DISL,ioos:station:DISL:CATA:1,2018-09-03T18:47:00Z,30.3085,-88.1395,76.4,1111122 
DISL,ioos:station:DISL:CATA:1,2018-09-03T19:47:00Z,30.3085,-88.1395,76.36,1111122 
DISL,ioos:station:DISL:CATA:1,2018-09-03T20:47:00Z,30.3085,-88.1395,72.09,1111122 
DISL,ioos:station:DISL:CATA:1,2018-09-03T21:47:00Z,30.3085,-88.1395,71.76,1111122 
DISL,ioos:station:DISL:CATA:1,2018-09-03T22:47:00Z,30.3085,-88.1395,71.67,1111122 
DISL,ioos:station:DISL:CATA:1,2018-09-03T23:47:00Z,30.3085,-88.1395,73.24,1111122 
DISL,ioos:station:DISL:CATA:1,2018-09-04T00:47:00Z,30.3085,-88.1395,75.09,1111122 
DISL,ioos:station:DISL:CATA:1,2018-09-04T01:47:00Z,30.3085,-88.1395,76.68,1111122 
DISL,ioos:station:DISL:CATA:1,2018-09-04T02:47:00Z,30.3085,-88.1395,81.6,1111122 
DISL,ioos:station:DISL:CATA:1,2018-09-04T03:47:00Z,30.3085,-88.1395,80.8,1111122 
DISL,ioos:station:DISL:CATA:1,2018-09-04T04:47:00Z,30.3085,-88.1395,82.1,1111122 
DISL,ioos:station:DISL:CATA:1,2018-09-04T05:47:00Z,30.3085,-88.1395,86.1,1111122 
DISL,ioos:station:DISL:CATA:1,2018-09-04T06:47:00Z,30.3085,-88.1395,86.3,1111122 
DISL,ioos:station:DISL:CATA:1,2018-09-04T07:47:00Z,30.3085,-88.1395,86.5,1111122 
DISL,ioos:station:DISL:CATA:1,2018-09-04T08:47:00Z,30.3085,-88.1395,87.5,1111122 
DISL,ioos:station:DISL:CATA:1,2018-09-04T09:47:00Z,30.3085,-88.1395,86.6,1111122 
DISL,ioos:station:DISL:CATA:1,2018-09-04T10:47:00Z,30.3085,-88.1395,85.7,1111122 
DISL,ioos:station:DISL:CATA:1,2018-09-04T11:47:00Z,30.3085,-88.1395,87.6,1111122 
DISL,ioos:station:DISL:CATA:1,2018-09-04T12:47:00Z,30.3085,-88.1395,86.4,1111122 
DISL,ioos:station:DISL:CATA:1,2018-09-04T13:47:00Z,30.3085,-88.1395,84.8,1111122 
DISL,ioos:station:DISL:CATA:1,2018-09-04T14:47:00Z,30.3085,-88.1395,82.0,1111122 
DISL,ioos:station:DISL:CATA:1,2018-09-04T15:47:00Z,30.3085,-88.1395,85.6,1111122 
DISL,ioos:station:DISL:CATA:1,2018-09-04T16:47:00Z,30.3085,-88.1395,78.61,1111122 
DISL,ioos:station:DISL:CATA:1,2018-09-04T17:47:00Z,30.3085,-88.1395,81.3,1111122 
DISL,ioos:station:DISL:CATA:1,2018-09-04T18:47:00Z,30.3085,-88.1395,78.49,1111122 
DISL,ioos:station:DISL:CATA:1,2018-09-04T19:47:00Z,30.3085,-88.1395,73.45,1111122 
DISL,ioos:station:DISL:CATA:1,2018-09-04T20:47:00Z,30.3085,-88.1395,72.66,1111122 
DISL,ioos:station:DISL:CATA:1,2018-09-04T21:17:00Z,30.3085,-88.1395,72.73,1111122 
DISL,ioos:station:DISL:CATA:1,2018-09-05T20:47:00Z,30.3085,-88.1395,84.4,1111122 
DISL,ioos:station:DISL:CATA:1,2018-09-05T21:47:00Z,30.3085,-88.1395,81.3,1111122 
DISL,ioos:station:DISL:CATA:1,2018-09-05T22:47:00Z,30.3085,-88.1395,79.89,1111122 
DISL,ioos:station:DISL:CATA:1,2018-09-05T23:47:00Z,30.3085,-88.1395,86.0,1111122 
DISL,ioos:station:DISL:CATA:1,2018-09-06T00:47:00Z,30.3085,-88.1395,85.4,1111122 
DISL,ioos:station:DISL:CATA:1,2018-09-06T01:47:00Z,30.3085,-88.1395,80.3,1111122 
DISL,ioos:station:DISL:CATA:1,2018-09-06T02:47:00Z,30.3085,-88.1395,82.5,1111122 
DISL,ioos:station:DISL:CATA:1,2018-09-06T03:47:00Z,30.3085,-88.1395,84.7,1111122 
DISL,ioos:station:DISL:CATA:1,2018-09-06T04:47:00Z,30.3085,-88.1395,85.0,1111122 
DISL,ioos:station:DISL:CATA:1,2018-09-06T05:47:00Z,30.3085,-88.1395,86.8,1111122 
DISL,ioos:station:DISL:CATA:1,2018-09-06T06:17:00Z,30.3085,-88.1395,85.1,1111122 
DISL,ioos:station:DISL:CATA:1,2018-09-06T20:47:00Z,30.3085,-88.1395,81.1,1111122 
DISL,ioos:station:DISL:CATA:1,2018-09-06T21:47:00Z,30.3085,-88.1395,78.28,1111122 
DISL,ioos:station:DISL:CATA:1,2018-09-06T22:47:00Z,30.3085,-88.1395,75.95,1111122 
DISL,ioos:station:DISL:CATA:1,2018-09-06T23:47:00Z,30.3085,-88.1395,78.52,1111122 
DISL,ioos:station:DISL:CATA:1,2018-09-07T00:47:00Z,30.3085,-88.1395,85.3,1111122 
DISL,ioos:station:DISL:CATA:1,2018-09-07T01:47:00Z,30.3085,-88.1395,81.4,1111122 
DISL,ioos:station:DISL:CATA:1,2018-09-07T02:47:00Z,30.3085,-88.1395,88.4,1111122 
DISL,ioos:station:DISL:CATA:1,2018-09-07T03:47:00Z,30.3085,-88.1395,85.1,1111122 
DISL,ioos:station:DISL:CATA:1,2018-09-07T04:47:00Z,30.3085,-88.1395,88.9,1111122 
DISL,ioos:station:DISL:CATA:1,2018-09-07T05:47:00Z,30.3085,-88.1395,90.3,1111122 
DISL,ioos:station:DISL:CATA:1,2018-09-07T06:47:00Z,30.3085,-88.1395,90.7,1111122 
DISL,ioos:station:DISL:CATA:1,2018-09-07T07:47:00Z,30.3085,-88.1395,90.9,1111122 
DISL,ioos:station:DISL:CATA:1,2018-09-07T08:47:00Z,30.3085,-88.1395,89.5,1111122 
DISL,ioos:station:DISL:CATA:1,2018-09-07T09:47:00Z,30.3085,-88.1395,88.7,1111122 
DISL,ioos:station:DISL:CATA:1,2018-09-07T10:47:00Z,30.3085,-88.1395,90.7,1111122 
DISL,ioos:station:DISL:CATA:1,2018-09-07T11:47:00Z,30.3085,-88.1395,86.4,1111122 
DISL,ioos:station:DISL:CATA:1,2018-09-07T12:47:00Z,30.3085,-88.1395,83.1,1111122 
DISL,ioos:station:DISL:CATA:1,2018-09-07T13:47:00Z,30.3085,-88.1395,81.0,1111122 
DISL,ioos:station:DISL:CATA:1,2018-09-07T14:47:00Z,30.3085,-88.1395,80.8,1111122 
DISL,ioos:station:DISL:CATA:1,2018-09-07T15:47:00Z,30.3085,-88.1395,77.83,1111122 
DISL,ioos:station:DISL:CATA:1,2018-09-07T16:47:00Z,30.3085,-88.1395,82.0,1111122 
DISL,ioos:station:DISL:CATA:1,2018-09-07T17:47:00Z,30.3085,-88.1395,82.5,1111122 
DISL,ioos:station:DISL:CATA:1,2018-09-07T18:47:00Z,30.3085,-88.1395,80.2,1111122 
DISL,ioos:station:DISL:CATA:1,2018-09-07T19:47:00Z,30.3085,-88.1395,76.16,1111122 
DISL,ioos:station:DISL:CATA:1,2018-09-07T20:47:00Z,30.3085,-88.1395,75.21,1111122 
DISL,ioos:station:DISL:CATA:1,2018-09-07T21:47:00Z,30.3085,-88.1395,71.51,1111122 
DISL,ioos:station:DISL:CATA:1,2018-09-07T22:47:00Z,30.3085,-88.1395,67.82,1111122 
DISL,ioos:station:DISL:CATA:1,2018-09-07T23:47:00Z,30.3085,-88.1395,74.82,1111122 
DISL,ioos:station:DISL:CATA:1,2018-09-08T00:47:00Z,30.3085,-88.1395,76.91,1111122 
DISL,ioos:station:DISL:CATA:1,2018-09-08T01:47:00Z,30.3085,-88.1395,76.57,1111122 
DISL,ioos:station:DISL:CATA:1,2018-09-08T02:47:00Z,30.3085,-88.1395,79.87,1111122 
DISL,ioos:station:DISL:CATA:1,2018-09-08T03:47:00Z,30.3085,-88.1395,81.1,1111122 
DISL,ioos:station:DISL:CATA:1,2018-09-08T04:47:00Z,30.3085,-88.1395,81.5,1111122 
DISL,ioos:station:DISL:CATA:1,2018-09-08T05:47:00Z,30.3085,-88.1395,81.6,1111122 
DISL,ioos:station:DISL:CATA:1,2018-09-08T06:47:00Z,30.3085,-88.1395,90.6,1111122 
DISL,ioos:station:DISL:CATA:1,2018-09-08T07:47:00Z,30.3085,-88.1395,92.8,1111122 
DISL,ioos:station:DISL:CATA:1,2018-09-08T08:47:00Z,30.3085,-88.1395,92.6,1111122 
DISL,ioos:station:DISL:CATA:1,2018-09-08T09:47:00Z,30.3085,-88.1395,91.1,1111122 
DISL,ioos:station:DISL:CATA:1,2018-09-08T10:47:00Z,30.3085,-88.1395,89.8,1111122 
DISL,ioos:station:DISL:CATA:1,2018-09-08T11:47:00Z,30.3085,-88.1395,88.4,1111122 
DISL,ioos:station:DISL:CATA:1,2018-09-08T12:47:00Z,30.3085,-88.1395,85.9,1111122 
DISL,ioos:station:DISL:CATA:1,2018-09-08T13:47:00Z,30.3085,-88.1395,80.7,1111122 
DISL,ioos:station:DISL:CATA:1,2018-09-08T14:48:00Z,30.3085,-88.1395,80.2,1111122 
DISL,ioos:station:DISL:CATA:1,2018-09-08T15:48:00Z,30.3085,-88.1395,75.34,1111122 
DISL,ioos:station:DISL:CATA:1,2018-09-08T16:48:00Z,30.3085,-88.1395,74.18,1111122 
DISL,ioos:station:DISL:CATA:1,2018-09-08T17:48:00Z,30.3085,-88.1395,72.19,1111122 
DISL,ioos:station:DISL:CATA:1,2018-09-08T18:48:00Z,30.3085,-88.1395,65.48,1111122 
DISL,ioos:station:DISL:CATA:1,2018-09-08T19:48:00Z,30.3085,-88.1395,70.72,1111122 
DISL,ioos:station:DISL:CATA:1,2018-09-08T20:48:00Z,30.3085,-88.1395,69.8,1111122 
DISL,ioos:station:DISL:CATA:1,2018-09-08T21:48:00Z,30.3085,-88.1395,70.07,1111122 
DISL,ioos:station:DISL:CATA:1,2018-09-08T22:48:00Z,30.3085,-88.1395,70.29,1111122 
DISL,ioos:station:DISL:CATA:1,2018-09-08T23:48:00Z,30.3085,-88.1395,66.56,1111122 
DISL,ioos:station:DISL:CATA:1,2018-09-09T00:48:00Z,30.3085,-88.1395,72.9,1111122 
DISL,ioos:station:DISL:CATA:1,2018-09-09T01:48:00Z,30.3085,-88.1395,71.87,1111122 
DISL,ioos:station:DISL:CATA:1,2018-09-09T02:48:00Z,30.3085,-88.1395,73.31,1111122 
DISL,ioos:station:DISL:CATA:1,2018-09-09T03:48:00Z,30.3085,-88.1395,72.32,1111122 
DISL,ioos:station:DISL:CATA:1,2018-09-09T04:48:00Z,30.3085,-88.1395,75.16,1111122 
DISL,ioos:station:DISL:CATA:1,2018-09-09T05:48:00Z,30.3085,-88.1395,77.63,1111122 
DISL,ioos:station:DISL:CATA:1,2018-09-09T06:47:00Z,30.3085,-88.1395,77.02,1111122 
DISL,ioos:station:DISL:CATA:1,2018-09-09T07:47:00Z,30.3085,-88.1395,74.31,1111122 
DISL,ioos:station:DISL:CATA:1,2018-09-09T08:47:00Z,30.3085,-88.1395,73.45,1111122 
DISL,ioos:station:DISL:CATA:1,2018-09-09T09:47:00Z,30.3085,-88.1395,74.17,1111122 
DISL,ioos:station:DISL:CATA:1,2018-09-09T10:47:00Z,30.3085,-88.1395,75.37,1111122 
DISL,ioos:station:DISL:CATA:1,2018-09-09T11:47:00Z,30.3085,-88.1395,74.41,1111122 
DISL,ioos:station:DISL:CATA:1,2018-09-09T12:47:00Z,30.3085,-88.1395,73.21,1111122 
DISL,ioos:station:DISL:CATA:1,2018-09-09T13:47:00Z,30.3085,-88.1395,74.31,1111122 
DISL,ioos:station:DISL:CATA:1,2018-09-09T14:47:00Z,30.3085,-88.1395,70.23,1111122 
DISL,ioos:station:DISL:CATA:1,2018-09-09T15:47:00Z,30.3085,-88.1395,69.97,1111122 
DISL,ioos:station:DISL:CATA:1,2018-09-09T16:47:00Z,30.3085,-88.1395,63.7,1111122 
DISL,ioos:station:DISL:CATA:1,2018-09-09T17:47:00Z,30.3085,-88.1395,68.53,1111122 
DISL,ioos:station:DISL:CATA:1,2018-09-09T18:47:00Z,30.3085,-88.1395,72.57,1111122 
DISL,ioos:station:DISL:CATA:1,2018-09-09T19:47:00Z,30.3085,-88.1395,67.95,1111122 
DISL,ioos:station:DISL:CATA:1,2018-09-09T20:47:00Z,30.3085,-88.1395,71.78,1111122 
DISL,ioos:station:DISL:CATA:1,2018-09-09T21:47:00Z,30.3085,-88.1395,70.9,1111122 
DISL,ioos:station:DISL:CATA:1,2018-09-09T22:47:00Z,30.3085,-88.1395,69.37,1111122 
DISL,ioos:station:DISL:CATA:1,2018-09-09T23:47:00Z,30.3085,-88.1395,71.7,1111122 
DISL,ioos:station:DISL:CATA:1,2018-09-10T00:47:00Z,30.3085,-88.1395,74.27,1111122 
DISL,ioos:station:DISL:CATA:1,2018-09-10T01:47:00Z,30.3085,-88.1395,73.28,1111122 
DISL,ioos:station:DISL:CATA:1,2018-09-10T02:47:00Z,30.3085,-88.1395,73.11,1111122 
DISL,ioos:station:DISL:CATA:1,2018-09-10T03:47:00Z,30.3085,-88.1395,75.37,1111122 
DISL,ioos:station:DISL:CATA:1,2018-09-10T04:47:00Z,30.3085,-88.1395,76.26,1111122 
DISL,ioos:station:DISL:CATA:1,2018-09-10T05:47:00Z,30.3085,-88.1395,76.88,1111122 
DISL,ioos:station:DISL:CATA:1,2018-09-10T06:47:00Z,30.3085,-88.1395,78.55,1111122 
DISL,ioos:station:DISL:CATA:1,2018-09-10T07:47:00Z,30.3085,-88.1395,80.9,1111122 
DISL,ioos:station:DISL:CATA:1,2018-09-10T08:47:00Z,30.3085,-88.1395,77.36,1111122 
DISL,ioos:station:DISL:CATA:1,2018-09-10T09:47:00Z,30.3085,-88.1395,75.95,1111122 
DISL,ioos:station:DISL:CATA:1,2018-09-10T10:47:00Z,30.3085,-88.1395,84.4,1111122 
DISL,ioos:station:DISL:CATA:1,2018-09-10T11:47:00Z,30.3085,-88.1395,82.8,1111122 
DISL,ioos:station:DISL:CATA:1,2018-09-10T12:47:00Z,30.3085,-88.1395,82.6,1111122 
DISL,ioos:station:DISL:CATA:1,2018-09-10T13:47:00Z,30.3085,-88.1395,81.5,1111122 
DISL,ioos:station:DISL:CATA:1,2018-09-10T14:47:00Z,30.3085,-88.1395,76.4,1111122 
DISL,ioos:station:DISL:CATA:1,2018-09-10T15:47:00Z,30.3085,-88.1395,77.6,1111122 
DISL,ioos:station:DISL:CATA:1,2018-09-10T16:47:00Z,30.3085,-88.1395,72.53,1111122 
DISL,ioos:station:DISL:CATA:1,2018-09-10T17:47:00Z,30.3085,-88.1395,73.9,1111122 
DISL,ioos:station:DISL:CATA:1,2018-09-10T18:47:00Z,30.3085,-88.1395,67.88,1111122 
DISL,ioos:station:DISL:CATA:1,2018-09-10T19:47:00Z,30.3085,-88.1395,67.88,1111122 
DISL,ioos:station:DISL:CATA:1,2018-09-10T20:47:00Z,30.3085,-88.1395,66.13,1111122 
DISL,ioos:station:DISL:CATA:1,2018-09-10T21:47:00Z,30.3085,-88.1395,72.12,1111122 
DISL,ioos:station:DISL:CATA:1,2018-09-10T22:47:00Z,30.3085,-88.1395,71.7,1111122 
DISL,ioos:station:DISL:CATA:1,2018-09-10T23:47:00Z,30.3085,-88.1395,70.98,1111122 
DISL,ioos:station:DISL:CATA:1,2018-09-11T00:47:00Z,30.3085,-88.1395,76.26,1111122 
DISL,ioos:station:DISL:CATA:1,2018-09-11T01:47:00Z,30.3085,-88.1395,74.2,1111122 
DISL,ioos:station:DISL:CATA:1,2018-09-11T02:47:00Z,30.3085,-88.1395,71.46,1111122 
DISL,ioos:station:DISL:CATA:1,2018-09-11T03:47:00Z,30.3085,-88.1395,74.13,1111122 
DISL,ioos:station:DISL:CATA:1,2018-09-11T04:47:00Z,30.3085,-88.1395,86.5,1111122 
DISL,ioos:station:DISL:CATA:1,2018-09-11T05:47:00Z,30.3085,-88.1395,88.1,1111122 
DISL,ioos:station:DISL:CATA:1,2018-09-11T06:47:00Z,30.3085,-88.1395,87.6,1111122 
DISL,ioos:station:DISL:CATA:1,2018-09-11T07:47:00Z,30.3085,-88.1395,80.4,1111122 
DISL,ioos:station:DISL:CATA:1,2018-09-11T08:47:00Z,30.3085,-88.1395,83.4,1111122 
DISL,ioos:station:DISL:CATA:1,2018-09-11T09:47:00Z,30.3085,-88.1395,88.2,1111122 
DISL,ioos:station:DISL:CATA:1,2018-09-11T10:47:00Z,30.3085,-88.1395,85.6,1111122 
DISL,ioos:station:DISL:CATA:1,2018-09-11T11:47:00Z,30.3085,-88.1395,83.7,1111122 
DISL,ioos:station:DISL:CATA:1,2018-09-11T12:47:00Z,30.3085,-88.1395,83.6,1111122 
DISL,ioos:station:DISL:CATA:1,2018-09-11T13:47:00Z,30.3085,-88.1395,79.65,1111122 
DISL,ioos:station:DISL:CATA:1,2018-09-11T14:47:00Z,30.3085,-88.1395,79.2,1111122 
DISL,ioos:station:DISL:CATA:1,2018-09-11T15:47:00Z,30.3085,-88.1395,79.9,1111122 
DISL,ioos:station:DISL:CATA:1,2018-09-11T16:47:00Z,30.3085,-88.1395,77.02,1111122 
DISL,ioos:station:DISL:CATA:1,2018-09-11T17:47:00Z,30.3085,-88.1395,71.68,1111122 
DISL,ioos:station:DISL:CATA:1,2018-09-11T18:47:00Z,30.3085,-88.1395,71.92,1111122 
DISL,ioos:station:DISL:CATA:1,2018-09-11T19:47:00Z,30.3085,-88.1395,64.97,1111122 
DISL,ioos:station:DISL:CATA:1,2018-09-11T20:47:00Z,30.3085,-88.1395,71.23,1111122 
DISL,ioos:station:DISL:CATA:1,2018-09-11T21:47:00Z,30.3085,-88.1395,70.01,1111122 
DISL,ioos:station:DISL:CATA:1,2018-09-11T22:47:00Z,30.3085,-88.1395,69.75,1111122 
DISL,ioos:station:DISL:CATA:1,2018-09-11T23:47:00Z,30.3085,-88.1395,73.45,1111122 
DISL,ioos:station:DISL:CATA:1,2018-09-12T00:47:00Z,30.3085,-88.1395,74.0,1111122 
DISL,ioos:station:DISL:CATA:1,2018-09-12T01:47:00Z,30.3085,-88.1395,71.12,1111122 
DISL,ioos:station:DISL:CATA:1,2018-09-12T02:47:00Z,30.3085,-88.1395,74.83,1111122 
DISL,ioos:station:DISL:CATA:1,2018-09-12T03:47:00Z,30.3085,-88.1395,76.0,1111122 
DISL,ioos:station:DISL:CATA:1,2018-09-12T04:47:00Z,30.3085,-88.1395,81.1,1111122 
DISL,ioos:station:DISL:CATA:1,2018-09-12T05:47:00Z,30.3085,-88.1395,89.4,1111122 
DISL,ioos:station:DISL:CATA:1,2018-09-12T06:47:00Z,30.3085,-88.1395,89.0,1111122 
DISL,ioos:station:DISL:CATA:1,2018-09-12T07:47:00Z,30.3085,-88.1395,85.4,1111122 
DISL,ioos:station:DISL:CATA:1,2018-09-12T08:47:00Z,30.3085,-88.1395,87.4,1111122 
DISL,ioos:station:DISL:CATA:1,2018-09-12T09:47:00Z,30.3085,-88.1395,85.9,1111122 
DISL,ioos:station:DISL:CATA:1,2018-09-12T10:47:00Z,30.3085,-88.1395,87.1,1111122 
DISL,ioos:station:DISL:CATA:1,2018-09-12T11:47:00Z,30.3085,-88.1395,86.9,1111122 
DISL,ioos:station:DISL:CATA:1,2018-09-12T12:47:00Z,30.3085,-88.1395,86.5,1111122 
DISL,ioos:station:DISL:CATA:1,2018-09-12T13:47:00Z,30.3085,-88.1395,85.2,1111122 
DISL,ioos:station:DISL:CATA:1,2018-09-12T14:17:00Z,30.3085,-88.1395,85.5,1111122 
DISL,ioos:station:DISL:CATA:1,2018-09-12T15:47:00Z,30.3085,-88.1395,84.6,1111122 
DISL,ioos:station:DISL:CATA:1,2018-09-12T16:47:00Z,30.3085,-88.1395,75.05,1111122 
DISL,ioos:station:DISL:CATA:1,2018-09-12T17:47:00Z,30.3085,-88.1395,74.52,1111122 
DISL,ioos:station:DISL:CATA:1,2018-09-12T18:47:00Z,30.3085,-88.1395,68.32,1111122 
DISL,ioos:station:DISL:CATA:1,2018-09-12T19:47:00Z,30.3085,-88.1395,66.3,1111122 
DISL,ioos:station:DISL:CATA:1,2018-09-12T20:47:00Z,30.3085,-88.1395,61.78,1111122 
DISL,ioos:station:DISL:CATA:1,2018-09-12T21:47:00Z,30.3085,-88.1395,64.18,1111122 
DISL,ioos:station:DISL:CATA:1,2018-09-12T22:47:00Z,30.3085,-88.1395,67.09,1111122 
DISL,ioos:station:DISL:CATA:1,2018-09-12T23:47:00Z,30.3085,-88.1395,72.34,1111122 
DISL,ioos:station:DISL:CATA:1,2018-09-13T00:47:00Z,30.3085,-88.1395,66.02,1111122 
DISL,ioos:station:DISL:CATA:1,2018-09-13T01:47:00Z,30.3085,-88.1395,67.83,1111122 
DISL,ioos:station:DISL:CATA:1,2018-09-13T02:47:00Z,30.3085,-88.1395,64.44,1111122 
DISL,ioos:station:DISL:CATA:1,2018-09-13T03:47:00Z,30.3085,-88.1395,67.08,1111122 
DISL,ioos:station:DISL:CATA:1,2018-09-13T04:47:00Z,30.3085,-88.1395,81.5,1111122 
DISL,ioos:station:DISL:CATA:1,2018-09-13T05:47:00Z,30.3085,-88.1395,81.6,1111122 
DISL,ioos:station:DISL:CATA:1,2018-09-13T06:47:00Z,30.3085,-88.1395,78.84,1111122 
DISL,ioos:station:DISL:CATA:1,2018-09-13T07:47:00Z,30.3085,-88.1395,80.2,1111122 
DISL,ioos:station:DISL:CATA:1,2018-09-13T08:47:00Z,30.3085,-88.1395,79.45,1111122 
DISL,ioos:station:DISL:CATA:1,2018-09-13T09:47:00Z,30.3085,-88.1395,83.9,1111122 
DISL,ioos:station:DISL:CATA:1,2018-09-13T10:47:00Z,30.3085,-88.1395,80.9,1111122 
DISL,ioos:station:DISL:CATA:1,2018-09-13T11:47:00Z,30.3085,-88.1395,79.8,1111122 
DISL,ioos:station:DISL:CATA:1,2018-09-13T12:47:00Z,30.3085,-88.1395,79.35,1111122 
DISL,ioos:station:DISL:CATA:1,2018-09-13T13:47:00Z,30.3085,-88.1395,80.1,1111122 
DISL,ioos:station:DISL:CATA:1,2018-09-13T14:47:00Z,30.3085,-88.1395,82.0,1111122 
DISL,ioos:station:DISL:CATA:1,2018-09-13T15:47:00Z,30.3085,-88.1395,78.47,1111122 
DISL,ioos:station:DISL:CATA:1,2018-09-13T16:47:00Z,30.3085,-88.1395,75.58,1111122 
DISL,ioos:station:DISL:CATA:1,2018-09-13T17:47:00Z,30.3085,-88.1395,74.18,1111122 
DISL,ioos:station:DISL:CATA:1,2018-09-13T18:47:00Z,30.3085,-88.1395,69.42,1111122 
DISL,ioos:station:DISL:CATA:1,2018-09-13T19:47:00Z,30.3085,-88.1395,71.92,1111122 
DISL,ioos:station:DISL:CATA:1,2018-09-13T20:47:00Z,30.3085,-88.1395,72.77,1111122 
DISL,ioos:station:DISL:CATA:1,2018-09-13T21:47:00Z,30.3085,-88.1395,67.26,1111122 
DISL,ioos:station:DISL:CATA:1,2018-09-13T22:47:00Z,30.3085,-88.1395,69.9,1111122 
DISL,ioos:station:DISL:CATA:1,2018-09-13T23:47:00Z,30.3085,-88.1395,71.23,1111122 
DISL,ioos:station:DISL:CATA:1,2018-09-14T00:47:00Z,30.3085,-88.1395,72.76,1111122 
DISL,ioos:station:DISL:CATA:1,2018-09-14T01:47:00Z,30.3085,-88.1395,72.9,1111122 
DISL,ioos:station:DISL:CATA:1,2018-09-14T02:47:00Z,30.3085,-88.1395,69.68,1111122 
DISL,ioos:station:DISL:CATA:1,2018-09-14T03:47:00Z,30.3085,-88.1395,78.73,1111122 
DISL,ioos:station:DISL:CATA:1,2018-09-14T04:47:00Z,30.3085,-88.1395,82.3,1111122 
DISL,ioos:station:DISL:CATA:1,2018-09-14T05:47:00Z,30.3085,-88.1395,83.6,1111122 
DISL,ioos:station:DISL:CATA:1,2018-09-14T06:47:00Z,30.3085,-88.1395,83.1,1111122 
DISL,ioos:station:DISL:CATA:1,2018-09-14T07:47:00Z,30.3085,-88.1395,81.1,1111122 
DISL,ioos:station:DISL:CATA:1,2018-09-14T08:47:00Z,30.3085,-88.1395,89.8,1111122 
DISL,ioos:station:DISL:CATA:1,2018-09-14T09:47:00Z,30.3085,-88.1395,86.1,1111122 
DISL,ioos:station:DISL:CATA:1,2018-09-14T10:47:00Z,30.3085,-88.1395,91.3,1111122 
DISL,ioos:station:DISL:CATA:1,2018-09-14T11:47:00Z,30.3085,-88.1395,87.6,1111122 
DISL,ioos:station:DISL:CATA:1,2018-09-15T00:47:00Z,30.3085,-88.1395,78.66,1111122 